SB KEPS @ AMSAT $ORB26161.1 2Line Orbital Elements 26161.AMSAT QST de W1STR AMSAT Orbital Elements for Amateur Satellites in TLE Format From Orbital Analysis Office New England Sci-Tech STEM Education Center Natick MA June 10, 2026 To all radio amateurs These element sets describe the orbits of various satellites in use by the amateur radio community. For details see: www.amsat.org/keplerian-elements-formats/ A daily update of element sets is available at: www.amsat.org/tle/daily-bulletin.txt or without bulletin text: www.amsat.org/tle/dailytle.txt AO-07 1 07530U 74089B 26161.28179582 -.00000033 00000-0 84573-4 0 9999 2 07530 101.9901 174.4563 0012501 142.9960 284.8697 12.53697951359658 UO-11 1 14781U 84021B 26161.17371193 .00001160 00000-0 12370-3 0 9998 2 14781 97.8055 126.8269 0006981 196.0557 164.0441 14.90765931256084 LO-19 1 20442U 90005G 26161.27485573 .00000098 00000-0 51817-4 0 9996 2 20442 98.8852 182.8898 0010763 222.5115 137.5236 14.34121055901400 AO-27 1 22825U 93061C 26161.14733136 .00000077 00000-0 46307-4 0 9990 2 22825 98.6880 228.5632 0009426 118.0605 242.1532 14.30940402705996 FO-29 1 24278U 96046B 26161.28730356 .00000002 00000-0 34886-4 0 9993 2 24278 98.5246 11.1047 0350803 114.2893 249.5306 13.53273805472234 GO-32 1 25397U 98043D 26160.96984413 .00000058 00000-0 45251-4 0 9993 2 25397 99.0065 153.5465 0000643 181.5466 178.5710 14.24427022450309 ISS 1 25544U 98067A 26161.15832933 .00007673 00000-0 14376-3 0 9997 2 25544 51.6328 334.8807 0006746 152.8443 207.2900 15.49693861570666 NO-44 1 26931U 01043C 26161.03507967 .00000075 00000-0 59020-4 0 9994 2 26931 67.0511 262.7700 0006102 264.3538 95.6869 14.31953587289421 SO-50 1 27607U 02058C 26160.67027096 .00000963 00000-0 13085-3 0 9997 2 27607 64.5504 152.2423 0075429 263.8699 95.3809 14.83030513263347 CO-55 1 27844U 03031E 26161.29335645 .00000255 00000-0 12935-3 0 9990 2 27844 98.6735 169.9388 0009062 198.4654 161.6197 14.24331486190695 RS-22 1 27939U 03042A 26161.30777875 .00000754 00000-0 12448-3 0 9997 2 27939 98.3476 345.4724 0010107 294.2400 245.0545 14.73454760214539 CO-65 1 32785U 08021C 26161.22182481 .00005114 00000-0 32387-3 0 9997 2 32785 97.8272 142.4955 0010332 59.3713 300.8533 15.09387299984140 CO-66 1 32791U 08021J 26160.95377475 .00017862 00000-0 57103-3 0 9998 2 32791 97.7518 158.5073 0002177 26.7954 333.3399 15.32504530986183 RS-30 1 32953U 08025A 26161.25782866 .00000010 00000-0 25795-5 0 9991 2 32953 82.5050 359.7516 0019140 329.4928 30.5037 12.43178836818831 SRMSAT 1 37841U 11058D 26161.14545056 .00000359 00000-0 51119-4 0 9992 2 37841 19.9712 102.0891 0011931 126.5108 263.2638 14.11574082756824 ZACUBE-1 1 39417U 13066B 26161.14175542 .00003283 00000-0 25692-3 0 9998 2 39417 97.8088 123.4403 0040113 272.4357 87.2274 15.01145439679670 Delfi-N3xt 1 39428U 13066N 26161.01648597 .00004246 00000-0 37360-3 0 9996 2 39428 97.8343 81.3351 0073002 229.9263 129.5541 14.95015560673557 GOMX-1 1 39430U 13066Q 26161.30846759 .00001449 00000-0 22233-3 0 9996 2 39430 97.6495 2.2054 0130160 99.3688 262.2261 14.69432909668905 LO-74 1 39440U 13066AA 26161.09650600 .00003464 00000-0 32201-3 0 9996 2 39440 97.8902 110.0449 0059088 51.9853 308.6680 14.93705686675937 AO-73 1 39444U 13066AE 26161.16226425 .00005353 00000-0 33442-3 0 9999 2 39444 97.8264 132.4615 0034953 225.4147 134.4228 15.09404981678605 DTUSAT-2 1 40030U 14033W 26161.23671460 .00005811 00000-0 31568-3 0 9994 2 40030 98.0862 158.5229 0006155 254.1895 105.8657 15.14929208651639 LILACSAT-2 1 40908U 15049K 26161.30596271 .00016880 00000-0 28985-3 0 9997 2 40908 97.4659 197.8865 0005261 278.2795 81.7861 15.51218026594685 Horyu-4 1 41340U 16012D 26161.10844880 .00337518 00000-0 10043-2 0 9998 2 41340 30.9844 130.8123 0003461 226.4757 133.5616 15.90526809569681 Lapan A3 1 41603U 16040E 26161.27249615 .00003050 00000-0 97692-4 0 9992 2 41603 97.1486 157.6455 0011622 48.3138 311.9098 15.33060756553755 CAS-2T 1 41847U 16066G 26161.17591758 .00001549 00000-0 22451-3 0 9998 2 41847 98.3822 236.9922 0342548 150.6915 211.3981 14.44670996503782 TechnoSat 1 42829U 17042E 26160.40344424 .00002660 00000-0 19145-3 0 9996 2 42829 97.4264 318.3590 0018831 118.8363 241.4757 15.04906105485535 AO-91 1 43017U 17073E 26160.60079623 .00007602 00000-0 33267-3 0 9990 2 43017 97.4720 27.9710 0150699 355.5385 4.4491 15.12592571464246 S-Net D 1 43186U 18014G 26161.00648275 .00005007 00000-0 25944-3 0 9993 2 43186 97.5370 65.8418 0009561 51.9999 308.2096 15.16605477457679 S-Net B 1 43187U 18014H 26160.68789617 .00005042 00000-0 26145-3 0 9996 2 43187 97.5374 65.5115 0010086 48.2673 311.9421 15.16571708457624 S-Net A 1 43188U 18014J 26160.74148530 .00005052 00000-0 26170-3 0 9996 2 43188 97.5383 65.7721 0010011 48.9055 311.3041 15.16610982457630 S-Net C 1 43189U 18014K 26160.69173399 .00005014 00000-0 26003-3 0 9995 2 43189 97.5401 65.7960 0011214 41.6172 318.5912 15.16563550456175 Ten-Koh 1 43677U 18084G 26161.26616450 .00002104 00000-0 16150-3 0 9997 2 43677 98.0783 353.3381 0010819 135.5271 224.6823 15.02915096415121 PO-101 1 43678U 18084H 26161.30096258 .00002141 00000-0 17532-3 0 9997 2 43678 98.1177 357.2106 0012128 192.6809 167.4110 15.00418729415182 QO-100 1 43700U 18090A 26161.27372633 .00000162 00000-0 00000-0 0 9990 2 43700 0.0130 295.1016 0001901 185.1228 262.7748 1.00273901 27606 MinXSS-2 1 43758U 18099A 26161.16917435 .00033763 00000-0 68142-3 0 9992 2 43758 97.4538 237.2505 0006224 284.9519 75.1041 15.46430741413046 AO-95 1 43770U 18099N 26160.73658427 .00010631 00000-0 40880-3 0 9999 2 43770 97.4390 221.0109 0008751 24.8412 335.3246 15.26553683412087 SNUSat 2 1 43782U 18099AA 26161.10034945 .00007677 00000-0 34153-3 0 9999 2 43782 97.4067 214.5931 0009028 327.4253 32.6425 15.21731801411950 SnugLite 1 43784U 18099AC 26161.13244890 .00010483 00000-0 39787-3 0 9993 2 43784 97.3877 215.4823 0001604 344.0937 16.0251 15.27024616412247 ITASat 1 1 43786U 18099AE 26161.30251726 .00006440 00000-0 31057-3 0 9990 2 43786 97.4034 212.9518 0012847 24.1662 336.0173 15.18970169411868 EAGLET 1 1 43790U 18099AJ 26161.10817082 .00003265 00000-0 18894-3 0 9992 2 43790 97.4234 210.9642 0011395 18.8513 341.3138 15.12885389411260 ESEO 1 43792U 18099AL 26161.06259714 .00001772 00000-0 13155-3 0 9997 2 43792 97.3964 198.7556 0012069 4.1107 356.0217 15.04218958410739 JO-97 1 43803U 18099AX 26161.11394022 .00016123 00000-0 50087-3 0 9999 2 43803 97.4135 223.9246 0004141 297.4250 62.6571 15.33429169412542 Suomi 100 1 43804U 18099AY 26161.13521593 .00010485 00000-0 38309-3 0 9995 2 43804 97.4189 221.5551 0008475 308.8959 51.1524 15.28255069412341 ISAT 1 43879U 18111D 26161.06342232 .00093462 00000-0 98212-3 0 9990 2 43879 97.5884 95.7428 0001623 51.1119 309.0284 15.64029523410052 UWE-4 1 43880U 18111E 26161.03023773 .00034515 00000-0 71453-3 0 9997 2 43880 97.5850 89.0931 0006904 11.8229 348.3181 15.45678034409678 Sparrow 1 43881U 18111F 26160.81719199 .00143827 00000-0 10714-2 0 9996 2 43881 97.6118 100.9676 0004656 101.2531 258.9255 15.72333363410211 Prox-1 1 44339U 19036A 26161.29575890 .00012056 00000-0 11774-2 0 9999 2 44339 23.9911 160.2815 0005287 313.9538 46.0524 14.90447065372448 Taurus 1 1 44530U 19059C 26161.24163730 .00004506 00000-0 72580-3 0 9992 2 44530 98.6415 325.6400 0007726 341.1248 18.9670 14.72022749357628 TO-108 1 44881U 19093C 26161.24615034 .00000991 00000-0 11778-3 0 9994 2 44881 97.7530 233.6475 0014991 107.2692 253.0166 14.86510299350386 RS-44 1 44909U 19096E 26161.20339837 .00000036 00000-0 94046-4 0 9998 2 44909 82.5217 344.3466 0217856 160.4503 200.5118 12.79748682301455 SALSAT 1 46495U 20068K 26161.27729316 .00007605 00000-0 26695-3 0 9996 2 46495 97.8853 163.9217 0008649 336.5873 23.4971 15.29700288314300 CSS (TIANHE-1) 1 48274U 21035A 26161.25787489 .00022027 00000-0 26248-3 0 9990 2 48274 41.4694 4.1634 0008406 21.6299 338.4893 15.60521167292083 CUTE 1 49263U 21088D 26161.02259619 .00235005 22459-4 74682-3 0 9994 2 49263 97.4186 259.6343 0008118 245.9134 114.1291 15.91119117261418 TeikyoSat 4 1 49396U 21102B 26161.02771634 .00002156 00000-0 13827-3 0 9991 2 49396 97.3672 190.7892 0010933 324.1714 35.8781 15.09483947251641 Z-Sat 1 49399U 21102E 26161.27765872 .00003524 00000-0 17507-3 0 9997 2 49399 97.3335 196.8104 0014701 271.7260 88.2290 15.18213368252391 KOSEN 1 1 49402U 21102H 26161.06339965 .00007325 00000-0 28074-3 0 9993 2 49402 97.3193 203.3593 0012506 227.0178 133.0014 15.26737234252932 HO-113 1 50466U 21131B 26161.32093541 .00000406 00000-0 13889-3 0 9994 2 50466 98.4971 253.7478 0005268 112.5579 247.6168 14.41351268234129 SNUGLITE 2 1 52899U 22065F 26161.12964294 .00000853 00000-0 17076-3 0 9991 2 52899 98.2193 305.9731 0008403 53.0256 307.1714 14.64334747209963 UmKA 1 (RS40S) 1 57172U 23091G 26161.25094798 .00005843 00000-0 26805-3 0 9991 2 57172 97.5056 219.9750 0013931 139.3886 220.8391 15.20737122162952 CubeBel-2 (EU11S) 1 57175U 23091K 26161.24706374 .00012117 00000-0 43220-3 0 9995 2 57175 97.5058 224.4025 0011126 135.7009 224.5123 15.28983229163240 RS-38S 1 57189U 23091Z 26161.30690856 .00015060 00000-0 43386-3 0 9997 2 57189 97.5096 230.6552 0008617 98.1510 262.0711 15.35805031163636 SONATE-2 1 59112U 24043Q 26161.20385325 .00039531 00000-0 52311-3 0 9991 2 59112 97.5521 311.1751 0006707 219.2622 140.8148 15.58196614126801 GRBBeta 1 60237U 24128C 26160.91942828 .00003367 00000-0 23646-3 0 9996 2 60237 61.9897 241.7642 0041637 133.0874 227.3716 15.06591708105177 Curium One 1 60242U 24128H 26160.89774159 .00006837 00000-0 39633-3 0 9997 2 60242 61.9783 231.5907 0040931 128.9355 231.5401 15.12419563105354 ROBUSTA-3A 1 60243U 24128J 26160.92463460 .00006433 00000-0 38200-3 0 9993 2 60243 61.9859 233.9251 0042154 126.7066 233.7914 15.11591005105322 CatSat 1 60246U 24125J 26161.14003380 .00058619 00000-0 77613-3 0 9993 2 60246 97.2098 13.5536 0021981 204.5320 155.4892 15.57826884106291 HYPERVIEW-1G (RS66S) 1 61772U 24199AP 26160.50125704 .00071217 00000-0 50272-3 0 9994 2 61772 97.2889 39.8433 0002236 269.4785 90.6223 15.73836516133466 AO-123 1 61781U 24199AY 26161.25780945 .00007178 00000-0 20935-3 0 9999 2 61781 97.3016 29.9914 0013007 341.2305 18.8458 15.35576143132868 JINJUSat 1B 1 63210U 25052A 26160.64137112 .00015090 00000-0 47131-3 0 9990 2 63210 97.4016 57.3868 0005388 106.9979 253.1854 15.33266415 68944 NUSHSAT 1 1 63211U 25052B 26160.95769201 .00020425 00000-0 58977-3 0 9993 2 63211 97.3989 58.2447 0005153 108.0628 252.1177 15.35688169 69034 TEVEL2-4 1 63213U 25052D 26160.68297184 .00017103 00000-0 51594-3 0 9998 2 63213 97.3918 57.0647 0004529 116.3023 243.8685 15.34347478 68960 TEVEL2-5 1 63214U 25052E 26160.96353139 .00017677 00000-0 53583-3 0 9999 2 63214 97.3912 57.2938 0004488 118.3870 241.7826 15.34187821 69000 TEVEL2-6 1 63215U 25052F 26160.64956858 .00017293 00000-0 52508-3 0 9992 2 63215 97.3916 56.9640 0004469 119.1540 241.0151 15.34139307 68956 TEVEL2-1 1 63217U 25052H 26160.67600078 .00016290 00000-0 50303-3 0 9994 2 63217 97.3891 56.6234 0004296 127.2307 232.9328 15.33616916 68944 TEVEL2-3 1 63218U 25052J 26160.27943529 .00016163 00000-0 49846-3 0 9991 2 63218 97.3888 56.2474 0004412 129.8518 230.3113 15.33659205 68880 TEVEL2-2 1 63219U 25052K 26160.67635539 .00016199 00000-0 50009-3 0 9997 2 63219 97.3888 56.6264 0004308 129.1592 231.0034 15.33624992 68943 TEVEL2-9 1 63237U 25052AD 26160.64412435 .00015092 00000-0 49533-3 0 9993 2 63237 97.3951 55.9854 0007074 151.9311 208.2313 15.31666357 68873 TEVEL2-7 1 63238U 25052AE 26160.94496833 .00015122 00000-0 50062-3 0 9994 2 63238 97.3953 56.2048 0007199 151.6459 208.5176 15.31386774 68910 TEVEL2-8 1 63239U 25052AF 26160.69177181 .00014112 00000-0 46777-3 0 9995 2 63239 97.3952 55.9294 0007170 153.0566 207.1049 15.31361975 68878 SPIRONE 1 66657U 25274H 26160.75132619 .00002519 00000-0 24422-3 0 9993 2 66657 97.7478 90.1488 0013289 45.3027 314.9273 14.93514937 29116 K-HERO 1 66660U 25274L 26160.75800148 .00002397 00000-0 23016-3 0 9998 2 66660 97.7486 90.3110 0015294 48.5864 311.6667 14.93935521 29123 SNUGLITE-III DURI 1 66661U 25274M 26160.74597972 .00001927 00000-0 18584-3 0 9998 2 66661 97.7488 90.3196 0015804 48.8562 311.4019 14.93975633 29122 SAKHACUBE-CHOLBON 1 67290U 25313AU 26160.94171093 .00009322 00000-0 37855-3 0 9994 2 67290 97.3933 236.0676 0009613 30.8328 329.3472 15.24760784 24878 RS95S (QMR-KWT-2) 1 67291U 25313AV 26161.19878196 .00012693 00000-0 49387-3 0 9999 2 67291 97.3933 236.4824 0008971 28.7634 331.4097 15.26113589 24920 Ten-Koh2 1 68261U 25241B 26160.80192219 .00005889 00000-0 25467-3 0 9991 2 68261 51.6684 354.7738 0006373 120.8887 239.2718 15.23816074 13783 JACK-002 1 68417U 26067B 26160.85103302 .00006398 00000-0 30626-3 0 9990 2 68417 97.4559 119.5327 0001038 19.8110 340.3165 15.19303687 10834 DISCO 2 1 68431U 26067R 26161.26586502 .00007010 00000-0 33846-3 0 9998 2 68431 97.4593 119.9311 0003468 55.5421 304.6141 15.18968257 10898 HADES-SA (SpinnyONE) 1 68446U 26067AG 26160.84355241 .00017672 00000-0 84999-3 0 9991 2 68446 97.4393 119.2504 0009868 101.1139 259.1205 15.18811421 10810 PARUS-6U1 1 68456U 26067AS 26161.13279347 .00004877 00000-0 24690-3 0 9992 2 68456 97.4545 119.6051 0007640 89.9778 270.2331 15.17442471 10862 SAL-E 1 68458U 26067AU 26161.12928080 .00006426 00000-0 32221-3 0 9999 2 68458 97.4468 119.5423 0008034 97.0182 263.1965 15.17656539 10863 FSI-SAT 2 1 68792U 26088A 26160.91453648 .00003818 00000-0 25998-3 0 9997 2 68792 97.5046 310.3575 0015575 129.6269 230.6336 15.06772756 7193 OrigamiSat 2 1 68795U 26088D 26160.66733383 .00003134 00000-0 20404-3 0 9997 2 68795 97.5062 310.2317 0016774 104.9380 255.3708 15.08562004 7168 ARICA 2 1 68796U 26088E 26160.99701916 .00003721 00000-0 24268-3 0 9995 2 68796 97.5051 310.5476 0017274 102.7382 257.5778 15.08370400 7214 WASEDA-SAT-ZERO-II 1 68797U 26088F 26160.92737504 .00005414 00000-0 34938-3 0 9997 2 68797 97.5047 310.4862 0017066 102.7951 257.5186 15.08560374 7202 MANGARO-II-Piscus 1 68798U 26088G 26160.38799507 .00003033 00000-0 19637-3 0 9993 2 68798 97.5057 309.9852 0020559 107.2791 253.0689 15.08725820 7128 IO-86 1 40931U 25360.30710720 .00000000 00000-0 12800-3 0 00 2 40931 6.0006 332.5373 0012733 338.8432 8.1437 14.79075515 01 LILIUM-4 1 71922C 26067AC 26089.50133053 -.00014632 00000+0 -74472-3 0 04 2 71922 97.4497 49.1617 0004341 5.9603 355.7042 15.16896692 16 /EX